User: anonymous   Login
Location: Unspecified
(0.0000°N, 0.0000°E)
Time: 08:10:31
(UTC+00:00)
Language:

GEOS 3 - Orbit

View from above orbital plane
View from above orbital plane
View from above satellite
View from above satellite

Ground track
Ground track

The orbit data is extracted from the following two-line orbital elements,

1  7734U 75027A   19345.60786641 -.00000155  00000-0  10189-4 0  9997
2  7734 114.9867 233.0260 0006401 253.6709 106.3666 14.18646349311928
Epoch (UTC): 11 December 2019 14:35:19
Eccentricity: 0.0006401
inclination: 114.9867°
perigee height: 825 km
apogee height: 834 km
right ascension of ascending node: 233.0260°
argument of perigee: 253.6709°
revolutions per day: 14.18646349
mean anomaly at epoch: 106.3666°
orbit number at epoch: 31192

The dashed part of the orbit path shows where the satellite is in the earth's shadow,  

DLR